Weather in Agryz

Russia / Republic of Tatarstan     56°31′34″N   52°59′42″E
temp.,
°C
wind,
m/s
gust,
m/s
humid.,
%
clouds,
%
prec.,
mm/h
press.,
hPa
HPBL,
m
7 may, fri
fri700:00+9s3785100 0.0 1017126
03:00+8s399163 0.0 1017171
06:00+11ssw4117758 0.0 1017293
09:00+16ssw6955100 0.0 1017942
12:00+18ssw7943100 0.0 10172195
15:00+19ssw7946100 0.0 10162486
18:00+16ssw4860100 0.0 1015271
21:00+12s3871100 0.0 1016147
8 may, sat
sat800:00+11ssw3875100 0.0 1016157
03:00+10wnw1280100 0.0 101712
06:00+11n2382100 0.0 1018194
09:00+15e116460 0.0 1018761
12:00+18s344886 0.1 10171583
15:00+19ssw3442100 0.3 10172303
18:00+16s126310 0.0 101753
21:00+13ssw22715 0.0 101711
9 may, sun
sun900:00+11se22755 0.0 101716
03:00+10sse22775 0.0 101718
06:00+13se477015 0.0 1017233
09:00+18sse56511 0.0 1016865
12:00+21s5639100 0.0 10162269
15:00+21s4537100 0.0 10152255
18:00+18s225798 0.0 101620
21:00+15sse2465100 0.0 101781
10 may, mon
mon1000:00+14sse2369100 0.0 101638
03:00+11n1188100 0.0 101825
06:00+10nw4691100 0.1 1020248
09:00+10nnw5686100 0.2 1022458
12:00+9nnw5986100 0.3 1024544
15:00+7nnw61090100 1.6 1026638
18:00+8nnw378819 3.2 1027532
21:00+6nw23934 3.2 102956
11 may, tue
tue1100:00+5nnw33915 0.0 103051
03:00+4nnw228955 0.0 103119
06:00+8nw23755 0.0 1032157
09:00+13nw23517 0.0 1032774
12:00+16wnw344074 0.0 10311677
15:00+17wnw444359 0.0 10311561
18:00+15w346095 0.0 103089
21:00+12w2269100 0.0 103026